| time (UTC) | temp F | wind direction | speed knots | gust knots | rain 1hr in | rain 24hr in | rain mn in | humidity % | barometer mb |
| 20260507230535 | 78 | 357 | 0.0 | 4.3 | 0.00 | 0.00 | 0.00 | 27 | 1011.9 |
| 20260507230032 | 79 | 326 | 4.3 | 5.2 | 0.00 | 0.00 | 0.00 | 25 | 1011.7 |
| 20260507225527 | 81 | 310 | 2.6 | 2.6 | 0.00 | 0.00 | 0.00 | 27 | 1011.8 |
| 20260507225023 | 81 | 275 | 1.7 | 2.6 | 0.00 | 0.00 | 0.00 | 26 | 1011.9 |
| 20260507224519 | 80 | 239 | 0.9 | 4.3 | 0.00 | 0.00 | 0.00 | 31 | 1011.9 |
| 20260507224016 | 81 | 349 | 0.9 | 2.6 | 0.00 | 0.00 | 0.00 | 30 | 1012.0 |
| 20260507223512 | 80 | 238 | 2.6 | 4.3 | 0.00 | 0.00 | 0.00 | 24 | 1012.4 |
| 20260507223010 | 80 | 228 | 0.9 | 2.6 | 0.00 | 0.00 | 0.00 | 29 | 1012.2 |
| 20260507222507 | 79 | 263 | 0.9 | 2.6 | 0.00 | 0.00 | 0.00 | 26 | 1012.1 |
| 20260507222002 | 78 | 314 | 3.5 | 4.3 | 0.00 | 0.00 | 0.00 | 29 | 1012.3 |
| 20260507221459 | 80 | 176 | 1.7 | 4.3 | 0.00 | 0.00 | 0.00 | 30 | 1012.4 |
| 20260507220956 | 79 | 320 | 0.9 | 4.3 | 0.00 | 0.00 | 0.00 | 30 | 1012.4 |
| 20260507220454 | 80 | 180 | 0.9 | 3.5 | 0.00 | 0.00 | 0.00 | 29 | 1012.4 |
| 20260507215950 | 80 | 300 | 1.7 | 4.3 | 0.00 | 0.00 | 0.00 | 30 | 1012.6 |
| 20260507215447 | 79 | 260 | 1.7 | 4.3 | 0.00 | 0.00 | 0.00 | 26 | 1012.3 |
| 20260507214944 | 79 | 219 | 1.7 | 5.2 | 0.00 | 0.00 | 0.00 | 27 | 1012.7 |
| 20260507214442 | 79 | 248 | 0.0 | 3.5 | 0.00 | 0.00 | 0.00 | 26 | 1012.7 |
| 20260507213937 | 78 | 201 | 1.7 | 6.1 | 0.00 | 0.00 | 0.00 | 26 | 1012.7 |
| 20260507213434 | 79 | 237 | 2.6 | 3.5 | 0.00 | 0.00 | 0.00 | 24 | 1012.9 |
| 20260507212931 | 79 | 231 | 2.6 | 5.2 | 0.00 | 0.00 | 0.00 | 24 | 1012.8 |
| 20260507212426 | 79 | 161 | 0.9 | 4.3 | 0.00 | 0.00 | 0.00 | 26 | 1013.0 |
| 20260507211924 | 78 | 252 | 2.6 | 4.3 | 0.00 | 0.00 | 0.00 | 27 | 1013.3 |
| 20260507211420 | 78 | 246 | 2.6 | 7.0 | 0.00 | 0.00 | 0.00 | 27 | 1012.9 |
| 20260507210917 | 78 | 272 | 2.6 | 5.2 | 0.00 | 0.00 | 0.00 | 27 | 1013.0 |
| 20260507210414 | 78 | 252 | 2.6 | 4.3 | 0.00 | 0.00 | 0.00 | 29 | 1013.1 |
| 20260507205910 | 78 | 357 | 0.0 | 3.5 | 0.00 | 0.00 | 0.00 | 34 | 1013.1 |
| 20260507205408 | 78 | 207 | 1.7 | 5.2 | 0.00 | 0.00 | 0.00 | 29 | 1013.4 |
| 20260507204904 | 77 | 253 | 0.0 | 4.3 | 0.00 | 0.00 | 0.00 | 31 | 1013.3 |
| 20260507204400 | 77 | 230 | 1.7 | 4.3 | 0.00 | 0.00 | 0.00 | 30 | 1013.3 |
| 20260507203858 | 77 | 256 | 1.7 | 4.3 | 0.00 | 0.00 | 0.00 | 30 | 1013.4 |
| 20260507203356 | 76 | 210 | 1.7 | 5.2 | 0.00 | 0.00 | 0.00 | 30 | 1013.3 |
| 20260507202852 | 76 | 283 | 0.9 | 7.0 | 0.00 | 0.00 | 0.00 | 31 | 1013.5 |
| 20260507202349 | 76 | 220 | 2.6 | 6.1 | 0.00 | 0.00 | 0.00 | 31 | 1013.6 |
| 20260507201844 | 76 | 219 | 1.7 | 4.3 | 0.00 | 0.00 | 0.00 | 31 | 1013.5 |
| 20260507201340 | 76 | 285 | 1.7 | 6.1 | 0.00 | 0.00 | 0.00 | 33 | 1014.0 |
| 20260507200836 | 76 | 250 | 0.9 | 4.3 | 0.00 | 0.00 | 0.00 | 35 | 1013.8 |
| 20260507200332 | 76 | 89 | 0.0 | 4.3 | 0.00 | 0.00 | 0.00 | 33 | 1013.6 |
| 20260507195829 | 75 | 223 | 1.7 | 6.1 | 0.00 | 0.00 | 0.00 | 32 | 1013.8 |
| 20260507195326 | 75 | 158 | 4.3 | 8.7 | 0.00 | 0.00 | 0.00 | 35 | 1013.8 |
| 20260507194823 | 75 | 185 | 1.7 | 6.1 | 0.00 | 0.00 | 0.00 | 35 | 1014.1 |
| 20260507194319 | 74 | 153 | 2.6 | 13.0 | 0.00 | 0.00 | 0.00 | 37 | 1013.8 |
| 20260507193816 | 75 | 161 | 3.5 | 6.1 | 0.00 | 0.00 | 0.00 | 35 | 1014.2 |
| 20260507193314 | 75 | 148 | 1.7 | 5.2 | 0.00 | 0.00 | 0.00 | 34 | 1014.0 |
| 20260507192808 | 74 | 203 | 2.6 | 6.1 | 0.00 | 0.00 | 0.00 | 34 | 1014.0 |
| 20260507192306 | 75 | 193 | 2.6 | 6.1 | 0.00 | 0.00 | 0.00 | 33 | 1014.1 |
| 20260507191802 | 75 | 175 | 0.9 | 7.8 | 0.00 | 0.00 | 0.00 | 36 | 1014.0 |
| 20260507191258 | 75 | 182 | 3.5 | 4.3 | 0.00 | 0.00 | 0.00 | 35 | 1014.2 |
| 20260507190755 | 74 | 209 | 1.7 | 5.2 | 0.00 | 0.00 | 0.00 | 35 | 1014.1 |
| 20260507190254 | 74 | 220 | 3.5 | 7.8 | 0.00 | 0.00 | 0.00 | 35 | 1014.1 |
| 20260507185752 | 74 | 197 | 3.5 | 6.1 | 0.00 | 0.00 | 0.00 | 35 | 1014.1 |
| 20260507185249 | 74 | 199 | 3.5 | 4.3 | 0.00 | 0.00 | 0.00 | 36 | 1014.3 |
| 20260507184746 | 73 | 215 | 2.6 | 7.0 | 0.00 | 0.00 | 0.00 | 35 | 1014.5 |
| 20260507184244 | 74 | 242 | 1.7 | 13.9 | 0.00 | 0.00 | 0.00 | 36 | 1014.4 |
| 20260507183741 | 74 | 189 | 2.6 | 7.0 | 0.00 | 0.00 | 0.00 | 36 | 1014.2 |
| 20260507183237 | 73 | 201 | 0.9 | 3.5 | 0.00 | 0.00 | 0.00 | 37 | 1014.3 |
| 20260507182735 | 72 | 197 | 3.5 | 6.1 | 0.00 | 0.00 | 0.00 | 37 | 1014.6 |
| 20260507182230 | 72 | 236 | 2.6 | 4.3 | 0.00 | 0.00 | 0.00 | 39 | 1014.4 |
| 20260507181727 | 72 | 247 | 1.7 | 5.2 | 0.00 | 0.00 | 0.00 | 39 | 1014.2 |
| 20260507181223 | 72 | 208 | 3.5 | 6.1 | 0.00 | 0.00 | 0.00 | 38 | 1014.7 |
| 20260507180720 | 72 | 226 | 1.7 | 5.2 | 0.00 | 0.00 | 0.00 | 40 | 1014.5 |
| 20260507180217 | 71 | 272 | 1.7 | 7.8 | 0.00 | 0.00 | 0.00 | 39 | 1014.7 |
| 20260507175712 | 71 | 209 | 3.5 | 4.3 | 0.00 | 0.00 | 0.00 | 40 | 1014.7 |
| 20260507175210 | 71 | 290 | 1.7 | 6.1 | 0.00 | 0.00 | 0.00 | 41 | 1014.8 |
| 20260507174707 | 71 | 212 | 2.6 | 4.3 | 0.00 | 0.00 | 0.00 | 38 | 1014.6 |
| 20260507174205 | 71 | 225 | 0.9 | 4.3 | 0.00 | 0.00 | 0.00 | 42 | 1014.9 |
| 20260507173702 | 71 | 34 | 0.9 | 3.5 | 0.00 | 0.00 | 0.00 | 41 | 1014.9 |
| 20260507173159 | 71 | 296 | 0.0 | 2.6 | 0.00 | 0.00 | 0.00 | 45 | 1014.9 |
| 20260507172656 | 70 | 244 | 3.5 | 5.2 | 0.00 | 0.00 | 0.00 | 42 | 1014.8 |
| 20260507172153 | 69 | 254 | 0.0 | 7.0 | 0.00 | 0.00 | 0.00 | 42 | 1014.9 |
| 20260507171652 | 69 | 209 | 1.7 | 7.0 | 0.00 | 0.00 | 0.00 | 44 | 1014.9 |
| 20260507171150 | 69 | 174 | 4.3 | 5.2 | 0.00 | 0.00 | 0.00 | 44 | 1015.1 |
| 20260507170647 | 69 | 216 | 0.9 | 4.3 | 0.00 | 0.00 | 0.00 | 46 | 1015.1 |
| 20260507170144 | 69 | 248 | 1.7 | 5.2 | 0.00 | 0.00 | 0.00 | 43 | 1015.1 |
| 20260507165639 | 68 | 189 | 0.9 | 6.1 | 0.00 | 0.00 | 0.00 | 47 | 1015.0 |
| 20260507165136 | 68 | 243 | 2.6 | 5.2 | 0.00 | 0.00 | 0.00 | 45 | 1014.9 |
| 20260507164632 | 68 | 250 | 0.9 | 5.2 | 0.00 | 0.00 | 0.00 | 46 | 1015.3 |
| 20260507164129 | 67 | 237 | 2.6 | 6.1 | 0.00 | 0.00 | 0.00 | 45 | 1015.0 |
| 20260507163626 | 67 | 210 | 4.3 | 6.1 | 0.00 | 0.00 | 0.00 | 49 | 1015.0 |
| 20260507163124 | 67 | 272 | 1.7 | 6.1 | 0.00 | 0.00 | 0.00 | 51 | 1014.8 |
| 20260507162620 | 67 | 197 | 1.7 | 4.3 | 0.00 | 0.00 | 0.00 | 53 | 1015.1 |
| 20260507162116 | 67 | 282 | 0.9 | 4.3 | 0.00 | 0.00 | 0.00 | 51 | 1015.2 |
| 20260507161613 | 67 | 183 | 2.6 | 3.5 | 0.00 | 0.00 | 0.00 | 51 | 1015.1 |
| 20260507161109 | 66 | 244 | 1.7 | 5.2 | 0.00 | 0.00 | 0.00 | 52 | 1014.8 |
| 20260507160605 | 66 | 10 | 1.7 | 6.1 | 0.00 | 0.00 | 0.00 | 54 | 1015.0 |
| 20260507155557 | 64 | 89 | 0.0 | 7.8 | 0.00 | 0.00 | 0.00 | 58 | 1015.2 |
| 20260507155055 | 65 | 69 | 1.7 | 4.3 | 0.00 | 0.00 | 0.00 | 56 | 1015.1 |
| 20260507154551 | 64 | 58 | 1.7 | 4.3 | 0.00 | 0.00 | 0.00 | 60 | 1015.3 |
| 20260507154048 | 64 | 33 | 1.7 | 2.6 | 0.00 | 0.00 | 0.00 | 57 | 1015.3 |
| 20260507153545 | 63 | 96 | 0.9 | 3.5 | 0.00 | 0.00 | 0.00 | 58 | 1015.2 |
| 20260507153041 | 64 | 291 | 1.7 | 5.2 | 0.00 | 0.00 | 0.00 | 59 | 1015.5 |
| 20260507152537 | 64 | 142 | 0.0 | 2.6 | 0.00 | 0.00 | 0.00 | 59 | 1015.0 |
| 20260507152034 | 63 | 199 | 3.5 | 4.3 | 0.00 | 0.00 | 0.00 | 57 | 1015.2 |
| 20260507151530 | 61 | 194 | 1.7 | 6.1 | 0.00 | 0.00 | 0.00 | 59 | 1015.0 |
| 20260507151027 | 62 | 92 | 3.5 | 5.2 | 0.00 | 0.00 | 0.00 | 62 | 1015.1 |
| 20260507150524 | 60 | 20 | 0.9 | 4.3 | 0.00 | 0.00 | 0.00 | 62 | 1015.1 |
| 20260507150021 | 60 | 33 | 3.5 | 7.0 | 0.00 | 0.00 | 0.00 | 66 | 1015.0 |
| 20260507145516 | 61 | 354 | 3.5 | 4.3 | 0.00 | 0.00 | 0.00 | 62 | 1014.9 |
| 20260507145014 | 60 | 98 | 1.7 | 8.7 | 0.00 | 0.00 | 0.00 | 63 | 1014.8 |
| 20260507144510 | 60 | 260 | 2.6 | 7.0 | 0.00 | 0.00 | 0.00 | 63 | 1014.8 |
| 20260507144008 | 60 | 31 | 1.7 | 2.6 | 0.00 | 0.00 | 0.00 | 62 | 1014.8 |
| 20260507143505 | 60 | 345 | 0.9 | 2.6 | 0.00 | 0.00 | 0.00 | 62 | 1014.8 |
| 20260507143002 | 61 | 218 | 0.0 | 3.5 | 0.00 | 0.00 | 0.00 | 60 | 1015.2 |
| 20260507142457 | 62 | 95 | 0.9 | 2.6 | 0.00 | 0.00 | 0.00 | 60 | 1014.8 |
| 20260507141954 | 62 | 292 | 1.7 | 4.3 | 0.00 | 0.00 | 0.00 | 60 | 1014.8 |
| 20260507141450 | 62 | 33 | 0.9 | 2.6 | 0.00 | 0.00 | 0.00 | 60 | 1014.6 |
| 20260507140947 | 60 | 306 | 0.9 | 4.3 | 0.00 | 0.00 | 0.00 | 61 | 1014.6 |
| 20260507140444 | 60 | 274 | 0.9 | 2.6 | 0.00 | 0.00 | 0.00 | 64 | 1014.3 |
| 20260507135942 | 59 | 315 | 1.7 | 7.8 | 0.00 | 0.00 | 0.00 | 63 | 1014.5 |
| 20260507135438 | 59 | 180 | 2.6 | 4.3 | 0.00 | 0.00 | 0.00 | 63 | 1014.5 |
| 20260507134935 | 59 | 329 | 0.0 | 11.3 | 0.00 | 0.00 | 0.00 | 63 | 1014.0 |
| 20260507134432 | 59 | 195 | 1.7 | 5.2 | 0.00 | 0.00 | 0.00 | 65 | 1014.3 |
| 20260507133928 | 58 | 157 | 1.7 | 6.1 | 0.00 | 0.00 | 0.00 | 68 | 1014.4 |
| 20260507133424 | 57 | 108 | 0.0 | 12.2 | 0.00 | 0.00 | 0.00 | 71 | 1014.1 |
| 20260507132923 | 58 | 111 | 0.0 | 7.8 | 0.00 | 0.00 | 0.00 | 69 | 1014.1 |
| 20260507132418 | 59 | 155 | 2.6 | 7.8 | 0.00 | 0.00 | 0.00 | 68 | 1014.0 |
| 20260507131915 | 59 | 166 | 1.7 | 2.6 | 0.00 | 0.00 | 0.00 | 67 | 1014.1 |
| 20260507131412 | 59 | 105 | 0.9 | 2.6 | 0.00 | 0.00 | 0.00 | 68 | 1014.0 |
| 20260507130909 | 59 | 88 | 1.7 | 2.6 | 0.00 | 0.00 | 0.00 | 68 | 1014.3 |
| 20260507130406 | 58 | 179 | 0.9 | 4.3 | 0.00 | 0.00 | 0.00 | 69 | 1014.1 |
| 20260507125905 | 58 | 219 | 0.9 | 2.6 | 0.00 | 0.00 | 0.00 | 70 | 1014.0 |
| 20260507125402 | 58 | 234 | 0.0 | 3.5 | 0.00 | 0.00 | 0.00 | 70 | 1013.7 |
| 20260507124900 | 58 | 229 | 1.7 | 3.5 | 0.00 | 0.00 | 0.00 | 69 | 1014.0 |
| 20260507124355 | 58 | 240 | 1.7 | 6.1 | 0.00 | 0.00 | 0.00 | 69 | 1014.0 |
| 20260507123854 | 57 | 43 | 0.9 | 4.3 | 0.00 | 0.00 | 0.00 | 70 | 1013.7 |
| 20260507123351 | 57 | 69 | 1.7 | 3.5 | 0.00 | 0.00 | 0.00 | 70 | 1013.7 |
| 20260507122847 | 57 | 114 | 0.9 | 3.5 | 0.00 | 0.00 | 0.00 | 70 | 1013.6 |
| 20260507122342 | 57 | 187 | 0.0 | 4.3 | 0.00 | 0.00 | 0.00 | 71 | 1013.4 |
| 20260507121839 | 57 | 157 | 0.0 | 3.5 | 0.00 | 0.00 | 0.00 | 72 | 1013.7 |
| 20260507121335 | 57 | 300 | 0.9 | 2.6 | 0.00 | 0.00 | 0.00 | 72 | 1013.8 |
| 20260507120832 | 56 | 183 | 0.9 | 2.6 | 0.00 | 0.00 | 0.00 | 73 | 1013.5 |
| 20260507120328 | 56 | 195 | 2.6 | 3.5 | 0.00 | 0.00 | 0.00 | 73 | 1013.5 |
| 20260507115824 | 57 | 137 | 0.0 | 4.3 | 0.00 | 0.00 | 0.00 | 72 | 1013.7 |
| 20260507115320 | 57 | 197 | 1.7 | 4.3 | 0.00 | 0.00 | 0.00 | 73 | 1013.7 |
| 20260507114816 | 56 | 125 | 1.7 | 4.3 | 0.00 | 0.00 | 0.00 | 73 | 1013.8 |
| 20260507114313 | 56 | 89 | 0.0 | 2.6 | 0.00 | 0.00 | 0.00 | 73 | 1013.8 |
| 20260507113811 | 57 | 226 | 1.7 | 2.6 | 0.00 | 0.00 | 0.00 | 72 | 1013.8 |
| 20260507113307 | 57 | 209 | 1.7 | 4.3 | 0.00 | 0.00 | 0.00 | 71 | 1013.8 |
| 20260507112805 | 57 | 249 | 4.3 | 6.1 | 0.00 | 0.00 | 0.00 | 71 | 1014.1 |
| 20260507112306 | 57 | 226 | 0.0 | 3.5 | 0.00 | 0.00 | 0.00 | 71 | 1014.0 |
| 20260507111800 | 57 | 60 | 0.9 | 2.6 | 0.00 | 0.00 | 0.00 | 72 | 1014.0 |
| 20260507111256 | 57 | 8 | 1.7 | 2.6 | 0.00 | 0.00 | 0.00 | 71 | 1014.1 |
| 20260507110752 | 57 | 339 | 0.0 | 1.7 | 0.00 | 0.00 | 0.00 | 71 | 1014.1 |
| 20260507110249 | 58 | 97 | 1.7 | 1.7 | 0.00 | 0.00 | 0.00 | 69 | 1014.0 |
| 20260507105746 | 58 | 164 | 0.9 | 3.5 | 0.00 | 0.00 | 0.00 | 68 | 1013.6 |
| 20260507105241 | 59 | 272 | 0.0 | 4.3 | 0.00 | 0.00 | 0.00 | 67 | 1013.7 |
| 20260507104739 | 59 | 220 | 2.6 | 7.0 | 0.00 | 0.00 | 0.00 | 66 | 1013.7 |
| 20260507104236 | 59 | 31 | 0.9 | 4.3 | 0.00 | 0.00 | 0.00 | 67 | 1013.6 |
| 20260507103731 | 59 | 269 | 3.5 | 7.8 | 0.00 | 0.00 | 0.00 | 66 | 1013.7 |
| 20260507103228 | 58 | 230 | 3.5 | 4.3 | 0.00 | 0.00 | 0.00 | 67 | 1013.7 |
| 20260507102725 | 58 | 221 | 2.6 | 3.5 | 0.00 | 0.00 | 0.00 | 68 | 1013.8 |
| 20260507102221 | 58 | 218 | 0.0 | 3.5 | 0.00 | 0.00 | 0.00 | 67 | 1014.1 |
| 20260507101717 | 59 | 175 | 0.0 | 7.0 | 0.00 | 0.00 | 0.00 | 66 | 1014.2 |
| 20260507101212 | 58 | 236 | 1.7 | 3.5 | 0.00 | 0.00 | 0.00 | 68 | 1014.1 |
| 20260507100710 | 59 | 228 | 1.7 | 4.3 | 0.00 | 0.00 | 0.00 | 67 | 1014.2 |
| 20260507100208 | 59 | 26 | 4.3 | 7.0 | 0.00 | 0.00 | 0.00 | 67 | 1014.1 |
| 20260507095706 | 59 | 311 | 1.7 | 2.6 | 0.00 | 0.00 | 0.00 | 67 | 1014.1 |
| 20260507095202 | 59 | 238 | 2.6 | 3.5 | 0.00 | 0.00 | 0.00 | 67 | 1013.8 |
| 20260507094659 | 59 | 254 | 1.7 | 7.0 | 0.00 | 0.00 | 0.00 | 65 | 1013.8 |
| 20260507094156 | 59 | 207 | 1.7 | 3.5 | 0.00 | 0.00 | 0.00 | 66 | 1014.0 |
| 20260507093653 | 59 | 239 | 2.6 | 6.1 | 0.00 | 0.00 | 0.00 | 67 | 1013.8 |
| 20260507093152 | 58 | 34 | 0.0 | 3.5 | 0.00 | 0.00 | 0.00 | 68 | 1014.0 |
| 20260507092649 | 59 | 142 | 0.0 | 3.5 | 0.00 | 0.00 | 0.00 | 66 | 1013.6 |
| 20260507092145 | 59 | 37 | 0.0 | 2.6 | 0.00 | 0.00 | 0.00 | 65 | 1014.0 |
| 20260507091641 | 59 | 84 | 0.0 | 2.6 | 0.00 | 0.00 | 0.00 | 65 | 1013.7 |
| 20260507091137 | 59 | 53 | 0.0 | 3.5 | 0.00 | 0.00 | 0.00 | 65 | 1013.8 |
| 20260507090633 | 60 | 282 | 2.6 | 6.1 | 0.00 | 0.00 | 0.00 | 62 | 1013.8 |
| 20260507090131 | 60 | 91 | 2.6 | 4.3 | 0.00 | 0.00 | 0.00 | 61 | 1013.7 |
| 20260507085627 | 60 | 110 | 2.6 | 3.5 | 0.00 | 0.00 | 0.00 | 60 | 1013.7 |
| 20260507085124 | 60 | 98 | 0.0 | 4.3 | 0.00 | 0.00 | 0.00 | 59 | 1013.6 |
| 20260507084621 | 60 | 29 | 2.6 | 5.2 | 0.00 | 0.00 | 0.00 | 58 | 1013.5 |
| 20260507084118 | 60 | 144 | 5.2 | 5.2 | 0.00 | 0.00 | 0.00 | 60 | 1013.6 |
| 20260507083614 | 60 | 99 | 5.2 | 9.6 | 0.00 | 0.00 | 0.00 | 60 | 1013.4 |
| 20260507083112 | 60 | 62 | 1.7 | 4.3 | 0.00 | 0.00 | 0.00 | 60 | 1013.5 |
| 20260507082607 | 60 | 85 | 3.5 | 7.8 | 0.00 | 0.00 | 0.00 | 60 | 1013.6 |
| 20260507082104 | 61 | 351 | 9.6 | 14.8 | 0.00 | 0.00 | 0.00 | 58 | 1013.3 |
| 20260507081600 | 61 | 321 | 8.7 | 9.6 | 0.00 | 0.00 | 0.00 | 58 | 1013.1 |
| 20260507081057 | 61 | 6 | 1.7 | 3.5 | 0.00 | 0.00 | 0.00 | 58 | 1013.1 |
| 20260507080553 | 60 | 329 | 4.3 | 8.7 | 0.00 | 0.00 | 0.00 | 58 | 1013.0 |
| 20260507080050 | 60 | 294 | 3.5 | 5.2 | 0.00 | 0.00 | 0.00 | 61 | 1013.0 |
| 20260507075545 | 61 | 109 | 0.9 | 3.5 | 0.00 | 0.00 | 0.00 | 60 | 1013.1 |
| 20260507075041 | 61 | 51 | 0.9 | 6.1 | 0.00 | 0.00 | 0.00 | 57 | 1012.9 |
| 20260507074538 | 61 | 86 | 4.3 | 5.2 | 0.00 | 0.00 | 0.00 | 57 | 1012.9 |
| 20260507074037 | 61 | 48 | 1.7 | 6.1 | 0.00 | 0.00 | 0.00 | 58 | 1013.2 |
| 20260507073533 | 62 | 33 | 2.6 | 3.5 | 0.00 | 0.00 | 0.00 | 57 | 1012.8 |
| 20260507073029 | 63 | 302 | 0.0 | 5.2 | 0.00 | 0.00 | 0.00 | 54 | 1012.8 |
| 20260507072527 | 63 | 185 | 3.5 | 13.0 | 0.00 | 0.00 | 0.00 | 53 | 1012.7 |
| 20260507072024 | 64 | 222 | 1.7 | 8.7 | 0.00 | 0.00 | 0.00 | 53 | 1012.7 |
| 20260507071521 | 63 | 202 | 6.1 | 7.8 | 0.00 | 0.00 | 0.00 | 53 | 1012.4 |
| 20260507071017 | 64 | 207 | 6.1 | 7.8 | 0.00 | 0.00 | 0.00 | 52 | 1012.5 |
| 20260507070515 | 64 | 204 | 4.3 | 10.4 | 0.00 | 0.00 | 0.00 | 52 | 1012.5 |
| 20260507070013 | 64 | 208 | 4.3 | 7.8 | 0.00 | 0.00 | 0.00 | 51 | 1012.5 |
| 20260507065508 | 64 | 234 | 1.7 | 8.7 | 0.00 | 0.00 | 0.00 | 51 | 1012.5 |
| 20260507065005 | 64 | 199 | 4.3 | 6.1 | 0.00 | 0.00 | 0.00 | 52 | 1012.8 |
| 20260507064503 | 64 | 170 | 1.7 | 6.1 | 0.00 | 0.00 | 0.00 | 52 | 1012.7 |
| 20260507064001 | 63 | 158 | 3.5 | 8.7 | 0.00 | 0.00 | 0.00 | 52 | 1012.7 |
| 20260507063458 | 63 | 180 | 3.5 | 6.1 | 0.00 | 0.00 | 0.00 | 52 | 1012.7 |
| 20260507062955 | 63 | 213 | 1.7 | 7.8 | 0.00 | 0.00 | 0.00 | 52 | 1012.5 |
| 20260507062452 | 63 | 173 | 2.6 | 6.1 | 0.00 | 0.00 | 0.00 | 52 | 1012.7 |
| 20260507061949 | 64 | 121 | 2.6 | 7.8 | 0.00 | 0.00 | 0.00 | 52 | 1012.6 |
| 20260507061447 | 64 | 225 | 1.7 | 4.3 | 0.00 | 0.00 | 0.00 | 51 | 1012.5 |
| 20260507060945 | 65 | 141 | 0.9 | 4.3 | 0.00 | 0.00 | 0.00 | 50 | 1012.6 |
| 20260507060442 | 65 | 201 | 2.6 | 6.1 | 0.00 | 0.00 | 0.00 | 49 | 1012.5 |
| 20260507055938 | 65 | 204 | 2.6 | 10.4 | 0.00 | 0.00 | 0.00 | 50 | 1012.3 |
| 20260507055434 | 66 | 214 | 3.5 | 7.0 | 0.00 | 0.00 | 0.00 | 49 | 1012.5 |
| 20260507054931 | 66 | 191 | 2.6 | 7.0 | 0.00 | 0.00 | 0.00 | 48 | 1012.3 |
| 20260507054427 | 66 | 208 | 2.6 | 9.6 | 0.00 | 0.00 | 0.00 | 48 | 1012.3 |
| 20260507053925 | 66 | 228 | 2.6 | 6.1 | 0.00 | 0.00 | 0.00 | 48 | 1012.4 |
| 20260507053422 | 66 | 247 | 2.6 | 7.0 | 0.00 | 0.00 | 0.00 | 48 | 1012.4 |
| 20260507052921 | 66 | 224 | 1.7 | 5.2 | 0.00 | 0.00 | 0.00 | 48 | 1012.4 |
| 20260507052418 | 66 | 257 | 4.3 | 6.1 | 0.00 | 0.00 | 0.00 | 48 | 1012.3 |
| 20260507051914 | 66 | 223 | 3.5 | 5.2 | 0.00 | 0.00 | 0.00 | 48 | 1012.5 |
| 20260507051412 | 66 | 210 | 3.5 | 7.8 | 0.00 | 0.00 | 0.00 | 48 | 1012.3 |
| 20260507050909 | 67 | 190 | 1.7 | 7.8 | 0.00 | 0.00 | 0.00 | 47 | 1012.1 |
| 20260507050405 | 67 | 222 | 3.5 | 7.0 | 0.00 | 0.00 | 0.00 | 47 | 1012.4 |
| 20260507045902 | 67 | 229 | 4.3 | 7.8 | 0.00 | 0.00 | 0.00 | 47 | 1012.3 |
| 20260507045359 | 68 | 251 | 2.6 | 6.1 | 0.00 | 0.00 | 0.00 | 46 | 1012.4 |
| 20260507044856 | 68 | 223 | 3.5 | 6.1 | 0.00 | 0.00 | 0.00 | 46 | 1012.5 |
| 20260507044353 | 68 | 212 | 4.3 | 8.7 | 0.00 | 0.00 | 0.00 | 46 | 1012.4 |
| 20260507043848 | 68 | 209 | 1.7 | 7.0 | 0.00 | 0.00 | 0.00 | 46 | 1012.4 |
| 20260507043345 | 68 | 186 | 2.6 | 7.8 | 0.00 | 0.00 | 0.00 | 46 | 1012.2 |
| 20260507042842 | 69 | 334 | 0.0 | 6.1 | 0.00 | 0.00 | 0.00 | 46 | 1012.5 |
| 20260507042337 | 69 | 190 | 1.7 | 6.1 | 0.00 | 0.00 | 0.00 | 46 | 1012.5 |
| 20260507041834 | 69 | 156 | 2.6 | 6.1 | 0.00 | 0.00 | 0.00 | 46 | 1012.3 |
| 20260507041331 | 69 | 204 | 4.3 | 6.1 | 0.00 | 0.00 | 0.00 | 46 | 1012.3 |
| 20260507040828 | 69 | 198 | 5.2 | 7.0 | 0.00 | 0.00 | 0.00 | 46 | 1012.3 |
| 20260507040324 | 70 | 253 | 2.6 | 10.4 | 0.00 | 0.00 | 0.00 | 46 | 1012.1 |
| 20260507035820 | 70 | 196 | 3.5 | 7.8 | 0.00 | 0.00 | 0.00 | 46 | 1011.9 |
| 20260507035315 | 70 | 217 | 4.3 | 7.0 | 0.00 | 0.00 | 0.00 | 46 | 1011.9 |
| 20260507034814 | 69 | 218 | 3.5 | 6.1 | 0.00 | 0.00 | 0.00 | 46 | 1011.8 |
| 20260507034310 | 70 | 222 | 3.5 | 5.2 | 0.00 | 0.00 | 0.00 | 47 | 1011.5 |
| 20260507033808 | 70 | 213 | 4.3 | 7.8 | 0.00 | 0.00 | 0.00 | 46 | 1011.5 |
| 20260507033306 | 71 | 229 | 3.5 | 8.7 | 0.00 | 0.00 | 0.00 | 46 | 1011.5 |
| 20260507032802 | 71 | 194 | 2.6 | 9.6 | 0.00 | 0.00 | 0.00 | 46 | 1011.2 |
| 20260507032258 | 71 | 203 | 4.3 | 7.8 | 0.00 | 0.00 | 0.00 | 44 | 1011.2 |
| 20260507031755 | 71 | 255 | 3.5 | 6.1 | 0.00 | 0.00 | 0.00 | 46 | 1011.1 |
| 20260507031252 | 72 | 267 | 0.9 | 7.8 | 0.00 | 0.00 | 0.00 | 44 | 1011.2 |
| 20260507030749 | 71 | 258 | 2.6 | 6.1 | 0.00 | 0.00 | 0.00 | 45 | 1011.0 |
| 20260507030247 | 72 | 197 | 1.7 | 5.2 | 0.00 | 0.00 | 0.00 | 44 | 1011.2 |
| 20260507025744 | 73 | 309 | 0.9 | 4.3 | 0.00 | 0.00 | 0.00 | 43 | 1011.2 |
| 20260507025240 | 73 | 301 | 2.6 | 7.0 | 0.00 | 0.00 | 0.00 | 43 | 1011.0 |
| 20260507024739 | 73 | 219 | 2.6 | 7.0 | 0.00 | 0.00 | 0.00 | 44 | 1010.5 |
| 20260507024235 | 73 | 39 | 4.3 | 5.2 | 0.00 | 0.00 | 0.00 | 44 | 1011.1 |
| 20260507023731 | 73 | 344 | 1.7 | 4.3 | 0.00 | 0.00 | 0.00 | 46 | 1011.3 |
| 20260507023228 | 73 | 0 | 2.6 | 11.3 | 0.00 | 0.00 | 0.00 | 44 | 1011.0 |
| 20260507022725 | 74 | 204 | 1.7 | 9.6 | 0.00 | 0.00 | 0.00 | 42 | 1010.1 |
| 20260507022221 | 74 | 218 | 2.6 | 9.6 | 0.00 | 0.00 | 0.00 | 41 | 1009.6 |
| 20260507021718 | 74 | 204 | 3.5 | 8.7 | 0.00 | 0.00 | 0.00 | 42 | 1009.7 |
| 20260507021213 | 74 | 214 | 4.3 | 7.8 | 0.00 | 0.00 | 0.00 | 42 | 1009.6 |
| 20260507020712 | 75 | 245 | 3.5 | 7.0 | 0.00 | 0.00 | 0.00 | 43 | 1009.7 |
| 20260507020207 | 75 | 233 | 3.5 | 8.7 | 0.00 | 0.00 | 0.00 | 42 | 1009.9 |
| 20260507015706 | 75 | 204 | 3.5 | 6.1 | 0.00 | 0.00 | 0.00 | 43 | 1009.9 |
| 20260507015203 | 75 | 207 | 4.3 | 6.1 | 0.00 | 0.00 | 0.00 | 42 | 1009.7 |
| 20260507014659 | 75 | 237 | 2.6 | 6.1 | 0.00 | 0.00 | 0.00 | 42 | 1010.1 |
| 20260507014155 | 76 | 231 | 4.3 | 6.1 | 0.00 | 0.00 | 0.00 | 42 | 1009.7 |
| 20260507013652 | 76 | 225 | 0.9 | 7.0 | 0.00 | 0.00 | 0.00 | 43 | 1009.9 |
| 20260507013149 | 76 | 231 | 2.6 | 6.1 | 0.00 | 0.00 | 0.00 | 42 | 1009.9 |
| 20260507012647 | 76 | 218 | 2.6 | 7.0 | 0.00 | 0.00 | 0.00 | 42 | 1009.5 |
| 20260507012142 | 76 | 237 | 1.7 | 6.1 | 0.00 | 0.00 | 0.00 | 41 | 1010.0 |
| 20260507011641 | 76 | 231 | 3.5 | 6.1 | 0.00 | 0.00 | 0.00 | 41 | 1009.9 |
| 20260507011136 | 77 | 214 | 2.6 | 6.1 | 0.00 | 0.00 | 0.00 | 44 | 1009.9 |
| 20260507010631 | 77 | 223 | 1.7 | 7.0 | 0.00 | 0.00 | 0.00 | 44 | 1009.9 |
| 20260507010128 | 77 | 256 | 2.6 | 5.2 | 0.00 | 0.00 | 0.00 | 44 | 1010.0 |
| 20260507005625 | 77 | 203 | 2.6 | 5.2 | 0.00 | 0.00 | 0.00 | 42 | 1009.9 |
| 20260507005121 | 77 | 244 | 1.7 | 6.1 | 0.00 | 0.00 | 0.00 | 44 | 1010.0 |
| 20260507004618 | 78 | 217 | 1.7 | 3.5 | 0.00 | 0.00 | 0.00 | 44 | 1010.0 |
| 20260507004116 | 78 | 211 | 0.0 | 4.3 | 0.00 | 0.00 | 0.00 | 43 | 1009.9 |
| 20260507003612 | 78 | 234 | 0.0 | 6.1 | 0.00 | 0.00 | 0.00 | 43 | 1010.2 |
| 20260507003107 | 78 | 205 | 2.6 | 6.1 | 0.00 | 0.00 | 0.00 | 42 | 1010.0 |
| 20260507002604 | 78 | 221 | 2.6 | 7.0 | 0.00 | 0.00 | 0.00 | 41 | 1010.1 |
| 20260507002059 | 78 | 240 | 3.5 | 5.2 | 0.00 | 0.00 | 0.00 | 43 | 1010.0 |
| 20260507001556 | 79 | 233 | 2.6 | 5.2 | 0.00 | 0.00 | 0.00 | 41 | 1009.7 |
| 20260507001053 | 79 | 233 | 2.6 | 5.2 | 0.00 | 0.00 | 0.00 | 43 | 1010.2 |
| 20260507000549 | 79 | 238 | 1.7 | 7.0 | 0.00 | 0.00 | 0.00 | 41 | 1010.2 |
| 20260507000045 | 79 | 234 | 2.6 | 6.1 | 0.00 | 0.00 | 0.00 | 41 | 1010.0 |
| 20260506235543 | 78 | 239 | 1.7 | 6.1 | 0.00 | 0.00 | 0.00 | 42 | 1009.9 |
| 20260506235038 | 80 | 240 | 2.6 | 4.3 | 0.00 | 0.00 | 0.00 | 44 | 1010.1 |
| 20260506234536 | 80 | 271 | 1.7 | 4.3 | 0.00 | 0.00 | 0.00 | 41 | 1010.1 |
| 20260506234033 | 82 | 242 | 2.6 | 5.2 | 0.00 | 0.00 | 0.00 | 41 | 1010.2 |
| 20260506233530 | 82 | 250 | 0.9 | 3.5 | 0.00 | 0.00 | 0.00 | 43 | 1010.2 |
| 20260506233027 | 82 | 300 | 2.6 | 3.5 | 0.00 | 0.00 | 0.00 | 41 | 1010.3 |
| 20260506232523 | 81 | 249 | 0.0 | 4.3 | 0.00 | 0.00 | 0.00 | 40 | 1010.4 |
| 20260506232018 | 81 | 333 | 0.9 | 4.3 | 0.00 | 0.00 | 0.00 | 40 | 1010.4 |
| 20260506231516 | 80 | 343 | 1.7 | 6.1 | 0.00 | 0.00 | 0.00 | 43 | 1010.4 |
| 20260506231014 | 79 | 261 | 2.6 | 7.0 | 0.00 | 0.00 | 0.00 | 43 | 1010.4 |